Location: Barnston
(51.8500°N, 0.4000°E)
Time: 03:43:49
(UTC+00:00)

METEOR-M - Pass Details

Date: 26 September 2023
Orbit: 814 x 819 km, 98.6° (Epoch: 29 November)

Event Time Altitude Azimuth Distance (km) Brightness Sun altitude
Rises 03:36:31 0° 15° (NNE) 3,364 7.9 -20.8°
Reaches altitude 10° 03:38:53 10° 16° (NNE) 2,428 7.1 -20.5°
Maximum altitude 03:44:17 84° 106° (ESE) 832 4.1 -19.7°
Enters shadow 03:48:19 18° 193° (SSW) 1,900 5.7 -19.1°
